Northeast Philadelphia, PA

1:21 PM EST on November 13, 2019 (GMT -0500)
Northeast Philadelphia

Weather History for KPNE - September, 2019

Change the Weather History Date:

Monday, September 2, 2019

  Actual Average Record
Temperature  
Mean Temperature 78 °F -  
Max Temperature 88 °F 79 °F 93 °F (2008)
Min Temperature 68 °F 61 °F 54 °F (2001)
Cooling Degree Days 12    
Growing Degree Days 28 (Base 50)    
Moisture  
Dew Point 68 °F    
Average Humidity 78    
Maximum Humidity 87    
Minimum Humidity 48    
Precipitation  
Precipitation 0.24 in - - ()
Sea Level Pressure  
Sea Level Pressure 30.05 in    
Wind  
Wind Speed 5 mph ()    
Max Wind Speed 21 mph    
Max Gust Speed 26 mph    
Visibility 8.8 miles    
Events Rain , Thunderstorm    
Averages and records for this station are not official NWS values.
T = Trace of Precipitation, MM = Missing Value Source: Averaged Metar Reports

Daily Weather History Graph

Daily Weather History Graph

Search for Another Location

Airport or City:

Astronomy

Sep. 02, 2019 Rise Set
Actual Time 6:28 AM EDT 7:30 PM EDT
Civil Twilight 6:00 AM EDT 7:58 PM EDT
Nautical Twilight 5:27 AM EDT 8:31 PM EDT
Astronomical Twilight 4:53 AM EDT 9:05 PM EDT
Moon 10:08 AM EDT (9/2) 9:50 PM EDT (9/2)
Length of Visible Light 13h 57m
Length of Day
13h 01m
Waxing Crescent, 15% of the Moon is Illuminated
Sep 2
Waxing Crescent
Sep 5
First Quarter
Sep 14
Full
Sep 21
Last Quarter
Sep 28
New

Hourly Weather History & Observations

Time (EDT) Temp. Heat Index Dew Point Humidity Pressure Visibility Wind Dir Wind Speed Gust Speed Precip Events Conditions
12:54 AM 69.1 °F - 63.0 °F 81% 30.21 in 10.0 mi ESE 4.6 mph - N/A   Clear
1:54 AM 68.0 °F - 62.1 °F 81% 30.19 in 10.0 mi ESE 4.6 mph - N/A   Clear
2:54 AM 69.1 °F - 63.0 °F 81% 30.17 in 10.0 mi Calm Calm - N/A   Mostly Cloudy
3:54 AM 70.0 °F - 63.0 °F 78% 30.15 in 10.0 mi Calm Calm - N/A   Overcast
4:54 AM 70.0 °F - 63.0 °F 78% 30.14 in 10.0 mi East 5.8 mph - N/A   Overcast
5:54 AM 70.0 °F - 63.0 °F 78% 30.14 in 10.0 mi Calm Calm - N/A   Overcast
6:54 AM 70.0 °F - 64.0 °F 81% 30.13 in 10.0 mi SE 3.5 mph - N/A   Mostly Cloudy
7:54 AM 71.1 °F - 64.0 °F 78% 30.13 in 10.0 mi Variable 3.5 mph - N/A   Overcast
8:54 AM 73.9 °F - 66.0 °F 76% 30.11 in 10.0 mi Variable 3.5 mph - N/A   Overcast
9:16 AM 75.0 °F - 66.9 °F 76% 30.10 in 10.0 mi SSE 5.8 mph - N/A   Mostly Cloudy
9:25 AM 75.9 °F - 66.9 °F 74% 30.09 in 10.0 mi SSE 8.1 mph - N/A   Overcast
9:32 AM 75.9 °F - 66.9 °F 74% 30.09 in 10.0 mi Variable 4.6 mph - N/A   Overcast
9:54 AM 75.9 °F - 68.0 °F 76% 30.09 in 9.0 mi SSE 3.5 mph - 0.00 in Rain Light Rain
10:03 AM 75.0 °F - 69.1 °F 82% 30.08 in 2.5 mi Variable 3.5 mph - 0.04 in Rain , Thunderstorm Rain
10:07 AM 75.0 °F - 69.1 °F 82% 30.08 in 3.0 mi Calm Calm - 0.05 in Rain , Thunderstorm Light Rain
10:23 AM 75.0 °F - 70.0 °F 84% 30.08 in 7.0 mi South 5.8 mph - 0.06 in Rain , Thunderstorm Light Rain
10:33 AM 75.0 °F - 70.0 °F 84% 30.08 in 10.0 mi South 6.9 mph - 0.06 in Thunderstorm Overcast
10:41 AM 75.0 °F - 69.1 °F 82% 30.08 in 10.0 mi Variable 4.6 mph - 0.06 in   Overcast
10:54 AM 75.9 °F - 70.0 °F 82% 30.07 in 10.0 mi Calm Calm - 0.06 in   Overcast
11:08 AM 77.0 °F - 71.1 °F 82% 30.06 in 10.0 mi WSW 9.2 mph - N/A   Overcast
11:54 AM 80.1 °F 83.6 °F 71.1 °F 74% 30.04 in 10.0 mi WSW 8.1 mph - N/A   Mostly Cloudy
12:08 PM 80.1 °F 83.6 °F 71.1 °F 74% 30.04 in 10.0 mi WSW 11.5 mph - N/A   Mostly Cloudy
12:54 PM 82.9 °F 85.8 °F 68.0 °F 60% 30.02 in 10.0 mi WSW 13.8 mph - N/A   Scattered Clouds
1:54 PM 86.0 °F 90.1 °F 69.1 °F 57% 30.01 in 10.0 mi WSW 11.5 mph - N/A   Partly Cloudy
2:54 PM 87.1 °F 89.2 °F 66.0 °F 49% 29.97 in 10.0 mi West 13.8 mph 21.9 mph N/A   Clear
3:54 PM 87.1 °F 88.9 °F 64.9 °F 48% 29.96 in 10.0 mi West 13.8 mph - N/A   Partly Cloudy
4:28 PM 79.0 °F - 69.1 °F 72% 29.98 in 10.0 mi NNW 18.4 mph 21.9 mph N/A Thunderstorm Thunderstorm
4:37 PM 75.9 °F - 70.0 °F 82% 29.97 in 1.8 mi NNW 20.7 mph 26.5 mph 0.01 in Rain Heavy Rain
4:45 PM 75.0 °F - 70.0 °F 84% 29.97 in 1.0 mi NNW 13.8 mph - 0.17 in Rain , Thunderstorm Heavy Rain
4:50 PM 75.2 °F - 69.8 °F 83% 29.98 in 2.5 mi NNW 10.4 mph - 0.18 in Rain , Thunderstorm Light Thunderstorms and Rain
4:54 PM 75.0 °F - 70.0 °F 84% 29.98 in 8.0 mi North 5.8 mph - 0.18 in Rain , Thunderstorm Light Thunderstorms and Rain
5:17 PM 75.9 °F - 70.0 °F 82% 29.98 in 10.0 mi Calm Calm - 0.00 in Thunderstorm Mostly Cloudy
5:47 PM 77.0 °F - 69.1 °F 76% 29.98 in 10.0 mi Calm Calm - 0.00 in   Mostly Cloudy
5:54 PM 75.9 °F - 71.1 °F 85% 29.98 in 10.0 mi Calm Calm - 0.00 in   Mostly Cloudy
6:54 PM 75.9 °F - 71.1 °F 85% 29.96 in 9.0 mi West 3.5 mph - N/A   Clear
7:54 PM 75.0 °F - 70.0 °F 84% 29.98 in 10.0 mi SE 4.6 mph - N/A   Clear
8:54 PM 73.9 °F - 69.1 °F 85% 29.99 in 10.0 mi ESE 4.6 mph - N/A   Mostly Cloudy
9:54 PM 72.0 °F - 68.0 °F 87% 30.00 in 10.0 mi Calm Calm - N/A   Clear
10:54 PM 72.0 °F - 68.0 °F 87% 30.01 in 10.0 mi Calm Calm - N/A   Mostly Cloudy
11:54 PM 71.1 °F - 66.9 °F 87% 30.00 in 9.0 mi WNW 3.5 mph - N/A   Clear